User: anonymous   Login
Location: Gro�sch�nbrunn
(49.5760°N, 11.8868°E)
Time: 11:27:11
(UTC+00:00)
Language:

Cosmos 372 Rocket - Orbit

View from above orbital plane
View from above orbital plane
View from above satellite
View from above satellite

Ground track
Ground track

The orbit data is extracted from the following two-line orbital elements,

1 04589U 70086B   21135.49321134  .00000014  00000-0  12295-4 0  9994
2 04589  74.0602 196.1236 0019858  48.8088 311.4776 14.41638439652579
Epoch (UTC): 15 May 2021 11:50:13
Eccentricity: 0.0019858
inclination: 74.0602°
perigee height: 739 km
apogee height: 767 km
right ascension of ascending node: 196.1236°
argument of perigee: 48.8088°
revolutions per day: 14.41638439
mean anomaly at epoch: 311.4776°
orbit number at epoch: 65257

The dashed part of the orbit path shows where the satellite is in the earth's shadow,  

DLR